Time,TemperatureF,DewpointF,PressureIn,WindDirection,WindDirectionDegrees,WindSpeedMPH,WindSpeedGustMPH,Humidity,HourlyPrecipIn,Conditions,Clouds,dailyrainin,SolarRadiationWatts/m^2,SoftwareType,DateUTC
2013-01-19 00:02:00,42.0,-11.0,-100.00,NNE,21,7.0,16.0,10,0.00,,,0.00,0.000000,,2013-01-19 08:02:00,
2013-01-19 00:53:00,40.0,-12.0,-100.00,North,5,6.0,13.0,10,0.00,,,0.00,0.000000,,2013-01-19 08:53:00,
2013-01-19 01:02:00,40.0,-12.0,-100.00,North,5,6.0,13.0,10,0.00,,,0.00,0.000000,,2013-01-19 09:02:00,
2013-01-19 01:12:00,40.0,-12.0,-100.00,North,5,6.0,13.0,10,0.00,,,0.00,0.000000,,2013-01-19 09:12:00,
2013-01-19 01:22:00,40.0,-12.0,-100.00,North,5,6.0,13.0,10,0.00,,,0.00,0.000000,,2013-01-19 09:22:00,
2013-01-19 01:53:00,39.0,-9.0,-100.00,NE,53,4.0,14.0,12,0.00,,,0.00,0.000000,,2013-01-19 09:53:00,
2013-01-19 02:02:00,39.0,-9.0,-100.00,NE,53,4.0,14.0,12,0.00,,,0.00,0.000000,,2013-01-19 10:02:00,
2013-01-19 02:12:00,39.0,-9.0,-100.00,NE,53,4.0,14.0,12,0.00,,,0.00,0.000000,,2013-01-19 10:12:00,
2013-01-19 02:22:00,39.0,-9.0,-100.00,NE,53,4.0,14.0,12,0.00,,,0.00,0.000000,,2013-01-19 10:22:00,
2013-01-19 02:53:00,39.0,-11.0,-100.00,NE,42,2.0,8.0,11,0.00,,,0.00,0.000000,,2013-01-19 10:53:00,
2013-01-19 03:02:00,39.0,-11.0,-100.00,NE,42,2.0,8.0,11,0.00,,,0.00,0.000000,,2013-01-19 11:02:00,
2013-01-19 03:12:00,39.0,-11.0,-100.00,NE,42,2.0,8.0,11,0.00,,,0.00,0.000000,,2013-01-19 11:12:00,
2013-01-19 04:53:00,41.0,-13.0,-100.00,ENE,68,3.0,13.0,9,0.00,,,0.00,0.000000,,2013-01-19 12:53:00,
2013-01-19 05:02:00,41.0,-13.0,-100.00,ENE,68,3.0,13.0,9,0.00,,,0.00,0.000000,,2013-01-19 13:02:00,
2013-01-19 05:12:00,41.0,-13.0,-100.00,ENE,68,3.0,13.0,9,0.00,,,0.00,0.000000,,2013-01-19 13:12:00,
2013-01-19 05:22:00,41.0,-13.0,-100.00,ENE,68,3.0,13.0,9,0.00,,,0.00,0.000000,,2013-01-19 13:22:00,
2013-01-19 05:53:00,41.0,-16.0,-100.00,SSW,212,3.0,10.0,8,-99.99,,,0.00,0.000000,,2013-01-19 13:53:00,
2013-01-19 06:02:00,41.0,-16.0,-100.00,SSW,212,3.0,10.0,8,-99.99,,,0.00,0.000000,,2013-01-19 14:02:00,
2013-01-19 06:12:00,41.0,-16.0,-100.00,SSW,212,3.0,10.0,8,-99.99,,,0.00,0.000000,,2013-01-19 14:12:00,
2013-01-19 06:22:00,41.0,-16.0,-100.00,SSW,212,3.0,10.0,8,-99.99,,,0.00,0.000000,,2013-01-19 14:22:00,
2013-01-19 06:53:00,41.0,-13.0,-100.00,ENE,68,4.0,10.0,9,-99.99,,,0.00,0.000000,,2013-01-19 14:53:00,
2013-01-19 07:03:00,41.0,-13.0,-100.00,ENE,68,4.0,10.0,9,-99.99,,,0.00,0.000000,,2013-01-19 15:03:00,
2013-01-19 07:12:00,41.0,-13.0,-100.00,ENE,68,4.0,10.0,9,-99.99,,,0.00,0.000000,,2013-01-19 15:12:00,
2013-01-19 07:22:00,41.0,-13.0,-100.00,ENE,68,4.0,10.0,9,-99.99,,,0.00,0.000000,,2013-01-19 15:22:00,
2013-01-19 07:53:00,42.0,-15.0,-100.00,North,11,3.0,9.0,8,-99.99,,,-99.99,14.000000,,2013-01-19 15:53:00,
2013-01-19 08:03:00,42.0,-15.0,-100.00,North,11,3.0,9.0,8,-99.99,,,-99.99,14.000000,,2013-01-19 16:03:00,
2013-01-19 08:54:00,47.0,-11.0,-100.00,West,268,3.0,7.0,8,0.00,,,0.00,215.000000,,2013-01-19 16:54:00,
2013-01-19 09:02:00,47.0,-11.0,-100.00,West,268,3.0,7.0,8,0.00,,,0.00,215.000000,,2013-01-19 17:02:00,
2013-01-19 09:54:00,47.0,-9.0,-100.00,NNW,334,7.0,12.0,9,0.00,,,0.00,455.000000,,2013-01-19 17:54:00,
2013-01-19 10:06:00,47.0,-9.0,-100.00,NNW,334,7.0,12.0,9,0.00,,,0.00,455.000000,,2013-01-19 18:06:00,
2013-01-19 10:13:00,47.0,-9.0,-100.00,NNW,334,7.0,12.0,9,0.00,,,0.00,455.000000,,2013-01-19 18:13:00,
2013-01-19 10:23:00,47.0,-9.0,-100.00,NNW,334,7.0,12.0,9,0.00,,,0.00,455.000000,,2013-01-19 18:23:00,
2013-01-19 10:59:00,49.0,-7.0,-100.00,North,0,7.0,15.0,9,0.00,,,0.00,649.000000,,2013-01-19 18:59:00,
2013-01-19 11:05:00,49.0,-7.0,-100.00,North,0,7.0,15.0,9,0.00,,,0.00,649.000000,,2013-01-19 19:05:00,
2013-01-19 11:17:00,49.0,-7.0,-100.00,North,0,7.0,15.0,9,0.00,,,0.00,649.000000,,2013-01-19 19:17:00,
2013-01-19 11:25:00,49.0,-7.0,-100.00,North,0,7.0,15.0,9,0.00,,,0.00,649.000000,,2013-01-19 19:25:00,
2013-01-19 11:55:00,48.0,-6.0,-100.00,NW,322,6.0,14.0,10,0.00,,,-99.99,776.000000,,2013-01-19 19:55:00,
2013-01-19 12:08:00,48.0,-6.0,-100.00,NW,322,6.0,14.0,10,0.00,,,-99.99,776.000000,,2013-01-19 20:08:00,
2013-01-19 12:15:00,48.0,-6.0,-100.00,NW,322,6.0,14.0,10,0.00,,,-99.99,776.000000,,2013-01-19 20:15:00,
2013-01-19 12:23:00,48.0,-6.0,-100.00,NW,322,6.0,14.0,10,0.00,,,-99.99,776.000000,,2013-01-19 20:23:00,
2013-01-19 13:04:00,55.0,-5.0,-100.00,ENE,57,5.0,12.0,8,0.00,,,0.00,829.000000,,2013-01-19 21:04:00,
2013-01-19 13:13:00,55.0,-5.0,-100.00,ENE,57,5.0,12.0,8,0.00,,,0.00,829.000000,,2013-01-19 21:13:00,
2013-01-19 13:23:00,55.0,-5.0,-100.00,ENE,57,5.0,12.0,8,0.00,,,0.00,829.000000,,2013-01-19 21:23:00,
2013-01-19 14:57:00,53.0,-7.0,-100.00,South,179,4.0,11.0,8,0.00,,,0.00,693.000000,,2013-01-19 22:57:00,
2013-01-19 15:09:00,53.0,-7.0,-100.00,South,179,4.0,11.0,8,0.00,,,0.00,693.000000,,2013-01-19 23:09:00,
2013-01-19 15:23:00,53.0,-7.0,-100.00,South,179,4.0,11.0,8,0.00,,,0.00,693.000000,,2013-01-19 23:23:00,
2013-01-19 16:05:00,51.0,-6.0,-100.00,NE,45,5.0,14.0,9,0.00,,,0.00,509.000000,,2013-01-20 00:05:00,
2013-01-19 16:23:00,51.0,-6.0,-100.00,NE,45,5.0,14.0,9,0.00,,,0.00,509.000000,,2013-01-20 00:23:00,
2013-01-19 16:55:00,48.0,-6.0,-100.00,North,352,7.0,14.0,10,0.00,,,0.00,262.000000,,2013-01-20 00:55:00,
2013-01-19 17:03:00,48.0,-6.0,-100.00,North,352,7.0,14.0,10,0.00,,,0.00,262.000000,,2013-01-20 01:03:00,
2013-01-19 17:15:00,48.0,-6.0,-100.00,North,352,7.0,14.0,10,0.00,,,0.00,262.000000,,2013-01-20 01:15:00,
2013-01-19 17:23:00,48.0,-6.0,-100.00,North,352,7.0,14.0,10,0.00,,,0.00,262.000000,,2013-01-20 01:23:00,
2013-01-19 18:03:00,42.0,-5.0,-100.00,ENE,75,19.0,25.0,13,0.00,,,0.00,43.000000,,2013-01-20 02:03:00,
2013-01-19 18:13:00,42.0,-5.0,-100.00,ENE,75,19.0,25.0,13,0.00,,,0.00,43.000000,,2013-01-20 02:13:00,
2013-01-19 18:23:00,42.0,-5.0,-100.00,ENE,75,19.0,25.0,13,0.00,,,0.00,43.000000,,2013-01-20 02:23:00,
2013-01-19 19:06:00,41.0,-4.0,-100.00,ENE,69,17.0,27.0,14,0.00,,,-99.99,0.000000,,2013-01-20 03:06:00,
2013-01-19 19:13:00,41.0,-4.0,-100.00,ENE,69,17.0,27.0,14,0.00,,,-99.99,0.000000,,2013-01-20 03:13:00,
2013-01-19 19:56:00,40.0,-4.0,-100.00,NE,45,7.0,23.0,15,0.00,,,0.00,0.000000,,2013-01-20 03:56:00,
2013-01-19 20:04:00,40.0,-4.0,-100.00,NE,45,7.0,23.0,15,0.00,,,0.00,0.000000,,2013-01-20 04:04:00,
2013-01-19 20:14:00,40.0,-4.0,-100.00,NE,45,7.0,23.0,15,0.00,,,0.00,0.000000,,2013-01-20 04:14:00,
2013-01-19 20:22:00,40.0,-4.0,-100.00,NE,45,7.0,23.0,15,0.00,,,0.00,0.000000,,2013-01-20 04:22:00,
2013-01-19 20:55:00,41.0,-4.0,-100.00,East,88,13.0,17.0,14,0.00,,,0.00,0.000000,,2013-01-20 04:55:00,
2013-01-19 21:03:00,41.0,-4.0,-100.00,East,88,13.0,17.0,14,0.00,,,0.00,0.000000,,2013-01-20 05:03:00,
2013-01-19 21:12:00,41.0,-4.0,-100.00,East,88,13.0,17.0,14,0.00,,,0.00,0.000000,,2013-01-20 05:12:00,
2013-01-19 21:22:00,41.0,-4.0,-100.00,East,88,13.0,17.0,14,0.00,,,0.00,0.000000,,2013-01-20 05:22:00,
2013-01-19 21:53:00,40.0,-7.0,-100.00,East,94,10.0,17.0,13,0.00,,,0.00,0.000000,,2013-01-20 05:53:00,
2013-01-19 22:02:00,40.0,-7.0,-100.00,East,94,10.0,17.0,13,0.00,,,0.00,0.000000,,2013-01-20 06:02:00,
2013-01-19 22:12:00,40.0,-7.0,-100.00,East,94,10.0,17.0,13,0.00,,,0.00,0.000000,,2013-01-20 06:12:00,
2013-01-19 22:22:00,40.0,-7.0,-100.00,East,94,10.0,17.0,13,0.00,,,0.00,0.000000,,2013-01-20 06:22:00,
2013-01-19 22:53:00,40.0,-7.0,-100.00,ENE,63,7.0,15.0,13,0.00,,,0.00,0.000000,,2013-01-20 06:53:00,
2013-01-19 23:02:00,40.0,-7.0,-100.00,ENE,63,7.0,15.0,13,0.00,,,0.00,0.000000,,2013-01-20 07:02:00,
2013-01-19 23:11:00,40.0,-7.0,-100.00,ENE,63,7.0,15.0,13,0.00,,,0.00,0.000000,,2013-01-20 07:11:00,
2013-01-19 23:22:00,40.0,-7.0,-100.00,ENE,63,7.0,15.0,13,0.00,,,0.00,0.000000,,2013-01-20 07:22:00,
2013-01-19 23:52:00,42.0,-11.0,-100.00,NNE,25,4.0,13.0,10,-99.99,,,0.00,0.000000,,2013-01-20 07:52:00,